Calgary, Alberta

1:21 AM MDT on April 27, 2018 (GMT -0600)
Calgary International

Weather History for CYYC - June, 2013

Change the Weather History Date:

Tuesday, June 18, 2013

  Actual Average Record
Temperature  
Mean Temperature 59 °F -  
Max Temperature 66 °F 72 °F 84 °F (2003)
Min Temperature 52 °F 47 °F 35 °F (2004)
Degree Days  
Heating Degree Days 6    
Growing Degree Days 9 (Base 50)    
Moisture  
Dew Point 53 °F    
Average Humidity 85    
Maximum Humidity 94    
Minimum Humidity 60    
Precipitation  
Precipitation 0.20 in 0.10 in - ()
Sea Level Pressure  
Sea Level Pressure 29.95 in    
Wind  
Wind Speed 9 mph ()    
Max Wind Speed 20 mph    
Max Gust Speed 30 mph    
Visibility 15.7 miles    
Events Rain , Thunderstorm    
Averages and records for this station are not official NWS values.
T = Trace of Precipitation, MM = Missing Value Source: Averaged Metar Reports

Daily Weather History Graph

Daily Weather History Graph

Search for Another Location

Airport or City:

Astronomy

Jun. 18, 2013 Rise Set
Actual Time 5:20 AM MDT 9:54 PM MDT
Civil Twilight 4:33 AM MDT 10:41 PM MDT
Nautical Twilight 3:21 AM MDT 11:53 PM MDT
Astronomical Twilight 2:09 AM MDT 1:04 AM MDT
Moon 4:17 PM MDT (6/18) 2:02 AM MDT (6/18)
Length of Visible Light 18h 07m
Length of Day
16h 33m
Waxing Gibbous, 71% of the Moon is Illuminated
Jun 18
Waxing Gibbous
Jun 23
Full
Jun 29
Last Quarter
Jul 8
New
Jul 15
First Quarter

Hourly Weather History & Observations

Time (MDT) Temp. Dew Point Humidity Pressure Visibility Wind Dir Wind Speed Gust Speed Precip Events Conditions
12:00 AM 56 °F 52 °F 82% 29.96 in 15 mi South 9.2 mph - -   Scattered Clouds
12:00 AM 57.2 °F 51.8 °F 82% 29.96 in 15.0 mi South 9.2 mph - N/A   Partly Cloudy
1:00 AM 57.2 °F 51.8 °F 82% 29.96 in 15.0 mi South 10.4 mph - N/A   Partly Cloudy
2:00 AM 53.6 °F 50.0 °F 88% 29.97 in 15.0 mi South 9.2 mph - N/A   Partly Cloudy
3:00 AM 53.6 °F 50.0 °F 88% 29.96 in 15.0 mi SSW 10.4 mph - N/A   Partly Cloudy
4:00 AM 53.6 °F 50.0 °F 88% 29.97 in 15.0 mi SSW 8.1 mph - N/A   Partly Cloudy
5:00 AM 53.6 °F 50.0 °F 88% 29.94 in 15.0 mi SSW 4.6 mph - N/A   Partly Cloudy
6:00 AM 53 °F 50 °F 84% 29.93 in 19 mi WNW 6.9 mph - -   Scattered Clouds
6:00 AM 53.6 °F 50.0 °F 88% 29.93 in 20.0 mi WNW 4.6 mph - N/A   Mostly Cloudy
6:43 AM 53.6 °F 48.2 °F 82% 29.94 in 20.0 mi NNW 8.1 mph - N/A Thunderstorm Thunderstorm
6:49 AM 53.6 °F 46.4 °F 77% 29.99 in 20.0 mi WSW 16.1 mph 29.9 mph N/A Rain , Thunderstorm Light Thunderstorms and Rain
7:00 AM 53.6 °F 48.2 °F 82% 29.96 in 20.0 mi WNW 4.6 mph - N/A Rain , Thunderstorm Light Thunderstorms and Rain
7:13 AM 53.6 °F 48.2 °F 82% 29.93 in 20.0 mi NNW 17.3 mph - N/A Rain Light Rain Showers
7:16 AM 53.6 °F 48.2 °F 82% 29.93 in 20.0 mi NNW 19.6 mph - N/A Rain Light Rain Showers
7:27 AM 53.6 °F 50.0 °F 88% 29.92 in 30.0 mi NNW 18.4 mph 25.3 mph N/A   Overcast
8:00 AM 57.2 °F 53.6 °F 88% 29.92 in 30.0 mi NNE 10.4 mph 19.6 mph N/A   Mostly Cloudy
8:54 AM 57.2 °F 53.6 °F 88% 29.96 in 30.0 mi North 9.2 mph - N/A Rain Light Rain Showers
9:00 AM 57.2 °F 53.6 °F 88% 29.96 in 20.0 mi North 11.5 mph - N/A Rain Light Rain Showers
9:06 AM 57.2 °F 53.6 °F 88% 29.95 in 20.0 mi North 10.4 mph 19.6 mph N/A Rain , Thunderstorm Light Thunderstorms and Rain
9:17 AM 57.2 °F 53.6 °F 88% 29.96 in 25.0 mi NNW 11.5 mph 18.4 mph N/A Rain , Thunderstorm Light Thunderstorms and Rain
10:00 AM 55.4 °F 53.6 °F 94% 29.96 in 25.0 mi North 8.1 mph 17.3 mph N/A Rain , Thunderstorm Light Thunderstorms and Rain
10:15 AM 55.4 °F 53.6 °F 94% 29.97 in 25.0 mi NNE 8.1 mph - N/A Thunderstorm Thunderstorm
10:49 AM 55.4 °F 53.6 °F 94% 29.96 in 25.0 mi North 11.5 mph - N/A Rain Light Rain Showers
11:00 AM 55.4 °F 53.6 °F 94% 29.96 in 25.0 mi NNW 12.7 mph - N/A Rain Light Rain Showers
11:13 AM 55.4 °F 53.6 °F 94% 29.95 in 10.0 mi NNE 16.1 mph - N/A Rain , Thunderstorm Thunderstorms and Rain
11:43 AM 55.4 °F 53.6 °F 94% 30.02 in 6.0 mi WSW 16.1 mph - N/A Rain , Thunderstorm Thunderstorms and Rain
12:00 PM 55 °F 54 °F 94% 29.99 in 6 mi WNW 10.4 mph - - Rain , Thunderstorm Thunderstorms and Rain
12:00 PM 55.4 °F 53.6 °F 94% 29.99 in 6.0 mi NW 11.5 mph - N/A Rain , Thunderstorm Light Thunderstorms and Rain
1:00 PM 57.2 °F 55.4 °F 94% 29.99 in 25.0 mi West 11.5 mph 17.3 mph N/A   Overcast
2:00 PM 60.8 °F 55.4 °F 82% 29.96 in 25.0 mi NNE 8.1 mph - N/A   Overcast
3:00 PM 64.4 °F 55.4 °F 73% 29.94 in 30.0 mi NW 10.4 mph - N/A   Mostly Cloudy
4:00 PM 66.2 °F 57.2 °F 73% 29.94 in 30.0 mi North 9.2 mph - N/A   Mostly Cloudy
5:00 PM 62.6 °F 55.4 °F 77% 29.93 in 40.0 mi NNW 5.8 mph - N/A   Mostly Cloudy
6:00 PM 66 °F 55 °F 60% 29.91 in 28 mi NW 6.9 mph - -   Partly Cloudy
6:00 PM 66.2 °F 55.4 °F 68% 29.91 in 30.0 mi NW 8.1 mph - N/A   Mostly Cloudy
7:00 PM 62.6 °F 57.2 °F 82% 29.90 in 30.0 mi NE 10.4 mph - N/A   Mostly Cloudy
8:00 PM 62.6 °F 57.2 °F 82% 29.91 in 20.0 mi ENE 6.9 mph - N/A   Mostly Cloudy
9:00 PM 60.8 °F 57.2 °F 88% 29.89 in 15.0 mi NNE 11.5 mph - N/A   Mostly Cloudy
10:00 PM 60.8 °F 57.2 °F 88% 29.92 in 15.0 mi NNE 6.9 mph - N/A   Overcast
11:00 PM 59.0 °F 57.2 °F 94% 29.93 in 15.0 mi NE 12.7 mph - N/A   Overcast